AXM5327 WBKK-WMKP

Flight info

Callsign AXM5327
Flight time 2h 20m
Altitude 36000
Route ADLEX1F ADLEX Y446 PADLO Y447 OLKIT M758 OPULA DCT UPVUN M758 IDSEL DCT VPK G582 VBA DCT SUKAT A457 TEPUS GORVU1F
Aircraft A320/M-SDE3FGHIRWY/LB1

Departure

Time 2026-04-28 08:33
Airport Kota Kinabalu International Airport (WBKK)

Arrival

Time 2026-04-28 10:54
Airport Penang International Airport (WMKP)
Time Latitude Longitude Altitude Speed Heading
2026-04-28 08:20 5.92311 116.04976 29 ft 0 kts 68°
2026-04-28 08:23 5.92309 116.04972 29 ft 2 kts 68°
2026-04-28 08:23 5.92303 116.04957 29 ft 2 kts 68°
2026-04-28 08:24 5.92297 116.04942 29 ft 2 kts 68°
2026-04-28 08:24 5.92291 116.04927 29 ft 2 kts 68°
2026-04-28 08:24 5.92285 116.04912 29 ft 2 kts 68°
2026-04-28 08:24 5.92278 116.04897 29 ft 2 kts 47°
2026-04-28 08:25 5.92266 116.04888 29 ft 2 kts 22°
2026-04-28 08:25 5.92250 116.04883 29 ft 2 kts 345°
2026-04-28 08:25 5.92254 116.04885 29 ft 2 kts
2026-04-28 08:26 5.92265 116.04883 29 ft 0 kts 344°
2026-04-28 08:26 5.92269 116.04882 29 ft 3 kts 345°
2026-04-28 08:26 5.92309 116.04867 29 ft 8 kts 337°
2026-04-28 08:26 5.92361 116.04845 29 ft 8 kts 338°
2026-04-28 08:27 5.92402 116.04811 29 ft 8 kts 297°
2026-04-28 08:27 5.92403 116.04745 29 ft 12 kts 229°
2026-04-28 08:27 5.92333 116.04717 29 ft 11 kts 201°
2026-04-28 08:27 5.92263 116.04686 29 ft 10 kts 204°
2026-04-28 08:28 5.92201 116.04659 29 ft 9 kts 203°
2026-04-28 08:28 5.92147 116.04637 29 ft 8 kts 200°
2026-04-28 08:28 5.92095 116.04615 29 ft 8 kts 202°
2026-04-28 08:28 5.92046 116.04595 29 ft 8 kts 203°
2026-04-28 08:29 5.91993 116.04572 29 ft 12 kts 203°
2026-04-28 08:29 5.91878 116.04524 29 ft 21 kts 204°
2026-04-28 08:29 5.91786 116.04477 29 ft 12 kts 236°
2026-04-28 08:29 5.91793 116.04419 29 ft 0 kts 292°
2026-04-28 08:31 5.91794 116.04416 29 ft 3 kts 292°
2026-04-28 08:31 5.91818 116.04363 29 ft 10 kts 298°
2026-04-28 08:32 5.91855 116.04323 29 ft 7 kts 351°
2026-04-28 08:32 5.91890 116.04340 29 ft 5 kts 30°
2026-04-28 08:32 5.92023 116.04398 29 ft 52 kts 22°
2026-04-28 08:32 5.92566 116.04628 29 ft 114 kts 22°
2026-04-28 08:33 5.93460 116.05005 29 ft 162 kts 22°
2026-04-28 08:33 5.94568 116.05507 355 ft 177 kts 24°
2026-04-28 08:33 5.95721 116.05959 865 ft 186 kts 20°
2026-04-28 08:33 5.97013 116.06426 1135 ft 207 kts 19°
2026-04-28 08:34 5.98415 116.06920 1602 ft 223 kts 15°
2026-04-28 08:34 6.00017 116.06887 1918 ft 247 kts 339°
2026-04-28 08:34 6.01379 116.05768 2420 ft 264 kts 303°
2026-04-28 08:34 6.02137 116.04059 3125 ft 272 kts 288°
2026-04-28 08:35 6.02653 116.02219 3893 ft 275 kts 285°
2026-04-28 08:35 6.03155 116.00344 4645 ft 281 kts 286°
2026-04-28 08:35 6.03724 115.98465 5390 ft 283 kts 288°
2026-04-28 08:35 6.04349 115.96569 6101 ft 288 kts 284°
2026-04-28 08:36 6.04573 115.94561 6755 ft 292 kts 266°
2026-04-28 08:36 6.04250 115.92541 7449 ft 295 kts 256°
2026-04-28 08:36 6.03805 115.90524 8161 ft 297 kts 257°
2026-04-28 08:36 6.03364 115.88485 8866 ft 300 kts 257°
2026-04-28 08:37 6.02924 115.86421 9573 ft 304 kts 257°
2026-04-28 08:37 6.02481 115.84335 10185 ft 309 kts 257°
2026-04-28 08:37 6.02013 115.82150 10337 ft 331 kts 257°
2026-04-28 08:37 6.01510 115.79812 10463 ft 353 kts 257°
2026-04-28 08:38 6.00979 115.77361 10821 ft 363 kts 257°
2026-04-28 08:38 6.00445 115.74865 11362 ft 368 kts 258°
2026-04-28 08:38 5.99976 115.72325 11937 ft 371 kts 260°
2026-04-28 08:38 5.99568 115.69786 12498 ft 374 kts 261°
2026-04-28 08:39 5.99183 115.67190 13059 ft 377 kts 262°
2026-04-28 08:39 5.98802 115.64569 13618 ft 381 kts 261°
2026-04-28 08:39 5.98410 115.61930 14109 ft 384 kts 261°
2026-04-28 08:39 5.98002 115.59271 14590 ft 387 kts 261°
2026-04-28 08:40 5.97577 115.56588 15066 ft 390 kts 261°
2026-04-28 08:40 5.97143 115.53887 15537 ft 393 kts 261°
2026-04-28 08:40 5.96701 115.51166 15996 ft 397 kts 261°
2026-04-28 08:40 5.96253 115.48420 16445 ft 400 kts 261°
2026-04-28 08:41 5.95803 115.45651 16898 ft 403 kts 261°
2026-04-28 08:41 5.95354 115.42865 17344 ft 406 kts 261°
2026-04-28 08:41 5.94903 115.40053 17784 ft 409 kts 261°
2026-04-28 08:41 5.94449 115.37220 18204 ft 412 kts 261°
2026-04-28 08:42 5.93992 115.34369 18570 ft 415 kts 261°
2026-04-28 08:42 5.93534 115.31499 18945 ft 417 kts 261°
2026-04-28 08:42 5.93074 115.28614 19313 ft 420 kts 261°
2026-04-28 08:42 5.92656 115.25704 19679 ft 422 kts 265°
2026-04-28 08:43 5.92628 115.22754 20042 ft 424 kts 272°
2026-04-28 08:43 5.92730 115.19782 20407 ft 427 kts 272°
2026-04-28 08:43 5.92831 115.16795 20766 ft 429 kts 272°
2026-04-28 08:43 5.92931 115.13790 21116 ft 431 kts 272°
2026-04-28 08:44 5.93029 115.10772 21464 ft 434 kts 272°
2026-04-28 08:44 5.93128 115.07738 21808 ft 436 kts 272°
2026-04-28 08:44 5.93193 115.05719 22034 ft 437 kts 272°
2026-04-28 08:44 5.93292 115.02657 22376 ft 440 kts 272°
2026-04-28 08:45 5.93391 114.99579 22706 ft 442 kts 272°
2026-04-28 08:45 5.93488 114.96484 23036 ft 444 kts 272°
2026-04-28 08:45 5.93585 114.93380 23358 ft 446 kts 272°
2026-04-28 08:45 5.93686 114.90252 23630 ft 449 kts 272°
2026-04-28 08:46 5.93820 114.86094 23997 ft 451 kts 271°
2026-04-28 08:46 5.93888 114.83964 24177 ft 452 kts 271°
2026-04-28 08:46 5.93991 114.80800 24456 ft 454 kts 271°
2026-04-28 08:46 5.94098 114.77629 24724 ft 455 kts 271°
2026-04-28 08:47 5.94205 114.74442 24985 ft 457 kts 271°
2026-04-28 08:47 5.94308 114.71283 25243 ft 459 kts 271°
2026-04-28 08:47 5.94409 114.68074 25497 ft 460 kts 271°
2026-04-28 08:47 5.94506 114.64856 25750 ft 462 kts 271°
2026-04-28 08:48 5.94603 114.61623 26005 ft 464 kts 271°
2026-04-28 08:48 5.94702 114.58384 26258 ft 465 kts 271°
2026-04-28 08:48 5.94804 114.55127 26507 ft 467 kts 271°
2026-04-28 08:48 5.94909 114.51866 26756 ft 469 kts 271°
2026-04-28 08:49 5.95018 114.48586 27011 ft 470 kts 271°
2026-04-28 08:49 5.95124 114.45300 27250 ft 472 kts 271°
2026-04-28 08:49 5.95226 114.42000 27493 ft 473 kts 271°
2026-04-28 08:49 5.95329 114.38691 27730 ft 475 kts 271°
2026-04-28 08:50 5.95431 114.35375 27982 ft 476 kts 271°
2026-04-28 08:50 5.95533 114.32048 28217 ft 477 kts 271°
2026-04-28 08:50 5.95635 114.28715 28436 ft 478 kts 271°
2026-04-28 08:50 5.95736 114.25371 28651 ft 480 kts 271°
2026-04-28 08:51 5.95838 114.22017 28861 ft 481 kts 270°
2026-04-28 08:51 5.95941 114.18654 29072 ft 482 kts 270°
2026-04-28 08:51 5.96048 114.15280 29280 ft 484 kts 271°
2026-04-28 08:51 5.96157 114.11897 29485 ft 485 kts 270°
2026-04-28 08:52 5.96267 114.08502 29689 ft 487 kts 270°
2026-04-28 08:52 5.96176 114.05109 29881 ft 486 kts 262°
2026-04-28 08:52 5.95556 114.01784 30105 ft 484 kts 253°
2026-04-28 08:52 5.94442 113.98610 30352 ft 481 kts 244°
2026-04-28 08:53 5.92947 113.95618 30602 ft 479 kts 240°
2026-04-28 08:53 5.91410 113.92651 30863 ft 478 kts 240°
2026-04-28 08:53 5.89877 113.89692 31080 ft 478 kts 240°
2026-04-28 08:53 5.88342 113.86731 31312 ft 478 kts 240°
2026-04-28 08:54 5.86811 113.83775 31569 ft 477 kts 241°
2026-04-28 08:54 5.85283 113.80827 31844 ft 475 kts 241°
2026-04-28 08:54 5.83777 113.77926 32112 ft 474 kts 241°
2026-04-28 08:54 5.82257 113.74993 32384 ft 473 kts 241°
2026-04-28 08:55 5.80741 113.72064 32641 ft 472 kts 241°
2026-04-28 08:55 5.79226 113.69139 32890 ft 472 kts 241°
2026-04-28 08:55 5.77713 113.66221 33159 ft 471 kts 241°
2026-04-28 08:55 5.76203 113.63310 33435 ft 470 kts 242°
2026-04-28 08:56 5.74695 113.60403 33701 ft 469 kts 242°
2026-04-28 08:56 5.71687 113.54605 33826 ft 468 kts 242°
2026-04-28 08:57 5.68681 113.48817 33826 ft 467 kts 242°
2026-04-28 08:57 5.65675 113.43036 33820 ft 467 kts 242°
2026-04-28 08:58 5.62675 113.37236 33822 ft 469 kts 242°
2026-04-28 08:58 5.59663 113.31431 33823 ft 469 kts 242°
2026-04-28 08:59 5.56658 113.25642 33823 ft 466 kts 242°
2026-04-28 08:59 5.53659 113.19870 33827 ft 466 kts 242°
2026-04-28 09:00 5.50661 113.14106 33824 ft 466 kts 242°
2026-04-28 09:00 5.47650 113.08323 33827 ft 472 kts 242°
2026-04-28 09:01 5.44608 113.02453 33827 ft 482 kts 242°
2026-04-28 09:01 5.41486 112.96459 33825 ft 486 kts 242°
2026-04-28 09:02 5.38350 112.90445 33829 ft 486 kts 242°
2026-04-28 09:02 5.35223 112.84421 33825 ft 486 kts 242°
2026-04-28 09:03 5.32092 112.78396 33818 ft 487 kts 242°
2026-04-28 09:03 5.28966 112.72388 33822 ft 485 kts 242°
2026-04-28 09:04 5.25833 112.66393 33823 ft 485 kts 242°
2026-04-28 09:04 5.22701 112.60394 33824 ft 485 kts 242°
2026-04-28 09:05 5.19579 112.54387 33827 ft 485 kts 242°
2026-04-28 09:05 5.16471 112.48424 33825 ft 486 kts 242°
2026-04-28 09:06 5.13334 112.42415 33824 ft 487 kts 242°
2026-04-28 09:06 5.10194 112.36400 33826 ft 487 kts 242°
2026-04-28 09:07 5.07052 112.30391 33824 ft 486 kts 242°
2026-04-28 09:07 5.03917 112.24372 33825 ft 486 kts 242°
2026-04-28 09:08 5.00789 112.18356 33824 ft 487 kts 242°
2026-04-28 09:08 4.97643 112.12346 33825 ft 487 kts 241°
2026-04-28 09:09 4.94490 112.06324 33828 ft 488 kts 241°
2026-04-28 09:09 4.91377 112.00349 33824 ft 479 kts 241°
2026-04-28 09:10 4.88294 111.94452 33827 ft 477 kts 240°
2026-04-28 09:10 4.85208 111.88570 33829 ft 476 kts 240°
2026-04-28 09:11 4.82820 111.82422 33826 ft 479 kts 254°
2026-04-28 09:11 4.81193 111.75943 33827 ft 479 kts 255°
2026-04-28 09:12 4.79537 111.69465 33829 ft 479 kts 255°
2026-04-28 09:12 4.77895 111.62988 33826 ft 479 kts 255°
2026-04-28 09:13 4.76253 111.56512 33825 ft 479 kts 255°
2026-04-28 09:13 4.74605 111.50032 33833 ft 479 kts 255°
2026-04-28 09:14 4.72963 111.43555 33830 ft 479 kts 255°
2026-04-28 09:14 4.71318 111.37081 33831 ft 479 kts 255°
2026-04-28 09:15 4.69668 111.30604 33826 ft 479 kts 255°
2026-04-28 09:15 4.68019 111.24129 33829 ft 479 kts 255°
2026-04-28 09:16 4.66372 111.17655 33830 ft 479 kts 255°
2026-04-28 09:16 4.64732 111.11217 33826 ft 483 kts 255°
2026-04-28 09:17 4.63063 111.04649 33833 ft 488 kts 255°
2026-04-28 09:17 4.61386 110.98060 33832 ft 487 kts 255°
2026-04-28 09:18 4.59711 110.91493 33833 ft 486 kts 255°
2026-04-28 09:18 4.58041 110.84922 33831 ft 486 kts 255°
2026-04-28 09:19 4.56367 110.78352 33828 ft 488 kts 255°
2026-04-28 09:19 4.54672 110.71745 33832 ft 490 kts 255°
2026-04-28 09:20 4.52979 110.65125 33832 ft 491 kts 255°
2026-04-28 09:20 4.51286 110.58496 33831 ft 491 kts 255°
2026-04-28 09:21 4.49590 110.51872 33830 ft 491 kts 255°
2026-04-28 09:21 4.47898 110.45246 33831 ft 491 kts 255°
2026-04-28 09:22 4.46200 110.38602 33831 ft 492 kts 255°
2026-04-28 09:22 4.44501 110.31957 33833 ft 492 kts 255°
2026-04-28 09:23 4.42796 110.25311 33831 ft 493 kts 255°
2026-04-28 09:23 4.41089 110.18664 33831 ft 493 kts 255°
2026-04-28 09:24 4.39387 110.12018 33836 ft 492 kts 255°
2026-04-28 09:24 4.37695 110.05417 33831 ft 492 kts 255°
2026-04-28 09:25 4.35990 109.98773 33834 ft 492 kts 255°
2026-04-28 09:25 4.34295 109.92123 33831 ft 492 kts 255°
2026-04-28 09:26 4.32588 109.85478 33837 ft 493 kts 255°
2026-04-28 09:26 4.30879 109.78832 33837 ft 493 kts 255°
2026-04-28 09:27 4.28313 109.68844 33835 ft 494 kts 255°
2026-04-28 09:27 4.26598 109.62172 33835 ft 494 kts 255°
2026-04-28 09:28 4.24878 109.55503 33835 ft 494 kts 255°
2026-04-28 09:28 4.23139 109.48839 33835 ft 494 kts 255°
2026-04-28 09:29 4.21385 109.42173 33835 ft 495 kts 255°
2026-04-28 09:29 4.19636 109.35497 33838 ft 496 kts 255°
2026-04-28 09:30 4.17896 109.28814 33838 ft 496 kts 255°
2026-04-28 09:30 4.16152 109.22132 33840 ft 496 kts 255°
2026-04-28 09:31 4.14401 109.15445 33841 ft 496 kts 255°
2026-04-28 09:31 4.12655 109.08761 33840 ft 496 kts 255°
2026-04-28 09:32 4.10904 109.02081 33841 ft 496 kts 255°
2026-04-28 09:32 4.09167 108.95451 33840 ft 496 kts 255°
2026-04-28 09:33 4.07426 108.88772 33841 ft 496 kts 255°
2026-04-28 09:33 4.05678 108.82092 33841 ft 496 kts 255°
2026-04-28 09:34 4.04204 108.76500 33839 ft 495 kts 255°
2026-04-28 09:34 4.02453 108.69837 33841 ft 494 kts 255°
2026-04-28 09:35 4.00716 108.63174 33841 ft 494 kts 255°
2026-04-28 09:35 3.98994 108.56564 33841 ft 494 kts 255°
2026-04-28 09:36 3.97260 108.49901 33843 ft 494 kts 255°
2026-04-28 09:36 3.95531 108.43242 33847 ft 494 kts 255°
2026-04-28 09:37 3.93805 108.36600 33841 ft 492 kts 254°
2026-04-28 09:37 3.92073 108.29975 33841 ft 491 kts 254°
2026-04-28 09:38 3.90342 108.23349 33841 ft 492 kts 254°
2026-04-28 09:38 3.88616 108.16731 33841 ft 491 kts 254°
2026-04-28 09:39 3.86893 108.10107 33840 ft 492 kts 254°
2026-04-28 09:39 3.85167 108.03483 33840 ft 491 kts 254°
2026-04-28 09:40 3.83431 107.96866 33841 ft 491 kts 254°
2026-04-28 09:40 3.81700 107.90240 33841 ft 491 kts 254°
2026-04-28 09:41 3.79976 107.83618 33844 ft 491 kts 254°
2026-04-28 09:41 3.78245 107.76999 33844 ft 491 kts 254°
2026-04-28 09:42 3.76513 107.70381 33841 ft 491 kts 254°
2026-04-28 09:42 3.74797 107.63813 33841 ft 491 kts 254°
2026-04-28 09:43 3.73067 107.57197 33840 ft 491 kts 254°
2026-04-28 09:43 3.71330 107.50586 33841 ft 491 kts 254°
2026-04-28 09:44 3.69598 107.43989 33840 ft 491 kts 254°
2026-04-28 09:44 3.67873 107.37372 33839 ft 493 kts 255°
2026-04-28 09:45 3.66136 107.30719 33840 ft 494 kts 255°
2026-04-28 09:45 3.64388 107.24056 33840 ft 495 kts 254°
2026-04-28 09:46 3.62636 107.17375 33840 ft 496 kts 254°
2026-04-28 09:46 3.60882 107.10688 33840 ft 497 kts 254°
2026-04-28 09:47 3.59128 107.03999 33842 ft 496 kts 255°
2026-04-28 09:47 3.57396 106.97353 33838 ft 491 kts 255°
2026-04-28 09:48 3.56051 106.90714 33841 ft 490 kts 266°
2026-04-28 09:48 3.55699 106.83903 33840 ft 491 kts 267°
2026-04-28 09:49 3.55345 106.77070 33840 ft 490 kts 267°
2026-04-28 09:49 3.54993 106.70253 33841 ft 490 kts 267°
2026-04-28 09:50 3.54643 106.63442 33840 ft 490 kts 267°
2026-04-28 09:50 3.54293 106.56630 33841 ft 490 kts 267°
2026-04-28 09:51 3.53939 106.49821 33841 ft 490 kts 267°
2026-04-28 09:51 3.53582 106.43008 33841 ft 490 kts 267°
2026-04-28 09:52 3.53235 106.36190 33841 ft 490 kts 267°
2026-04-28 09:52 3.52888 106.29381 33837 ft 489 kts 268°
2026-04-28 09:53 3.52546 106.22571 33838 ft 490 kts 267°
2026-04-28 09:53 3.52197 106.15766 33838 ft 490 kts 267°
2026-04-28 09:54 3.51847 106.08952 33835 ft 490 kts 267°
2026-04-28 09:54 3.51505 106.02149 33835 ft 490 kts 267°
2026-04-28 09:55 3.51167 105.95388 33832 ft 490 kts 267°
2026-04-28 09:55 3.50818 105.88583 33835 ft 490 kts 267°
2026-04-28 09:56 3.50453 105.81774 33838 ft 490 kts 267°
2026-04-28 09:56 3.50108 105.74965 33838 ft 490 kts 267°
2026-04-28 09:57 3.49766 105.68158 33837 ft 489 kts 268°
2026-04-28 09:57 3.49424 105.61353 33838 ft 490 kts 267°
2026-04-28 09:58 3.49088 105.54535 33838 ft 490 kts 267°
2026-04-28 09:58 3.48751 105.47719 33838 ft 490 kts 267°
2026-04-28 09:59 3.48404 105.40900 33838 ft 490 kts 267°
2026-04-28 09:59 3.48056 105.34084 33838 ft 490 kts 267°
2026-04-28 10:00 3.47708 105.27262 33839 ft 490 kts 267°
2026-04-28 10:00 3.47358 105.20449 33840 ft 490 kts 267°
2026-04-28 10:01 3.47015 105.13637 33837 ft 490 kts 267°
2026-04-28 10:01 3.46677 105.06872 33838 ft 490 kts 267°
2026-04-28 10:02 3.46324 105.00062 33837 ft 490 kts 267°
2026-04-28 10:02 3.45973 104.93253 33838 ft 490 kts 267°
2026-04-28 10:03 3.45627 104.86454 33838 ft 489 kts 267°
2026-04-28 10:03 3.45279 104.79659 33838 ft 488 kts 267°
2026-04-28 10:04 3.44934 104.72868 33839 ft 489 kts 267°
2026-04-28 10:04 3.44583 104.66075 33838 ft 489 kts 267°
2026-04-28 10:05 3.44235 104.59288 33837 ft 488 kts 267°
2026-04-28 10:05 3.43886 104.52495 33838 ft 489 kts 267°
2026-04-28 10:06 3.43539 104.45707 33838 ft 488 kts 267°
2026-04-28 10:06 3.43196 104.38915 33838 ft 489 kts 267°
2026-04-28 10:07 3.42854 104.32172 33840 ft 489 kts 267°
2026-04-28 10:07 3.42515 104.25389 33841 ft 489 kts 267°
2026-04-28 10:08 3.42172 104.18584 33838 ft 489 kts 267°
2026-04-28 10:08 3.41827 104.11775 33838 ft 490 kts 267°
2026-04-28 10:09 3.41484 104.04958 33841 ft 490 kts 267°
2026-04-28 10:09 3.41146 103.98145 33841 ft 491 kts 267°
2026-04-28 10:10 3.40813 103.91322 33835 ft 490 kts 267°
2026-04-28 10:10 3.40520 103.84503 33832 ft 491 kts 268°
2026-04-28 10:11 3.40260 103.77667 33830 ft 492 kts 268°
2026-04-28 10:11 3.39990 103.70817 33830 ft 492 kts 268°
2026-04-28 10:12 3.39707 103.63968 33824 ft 492 kts 267°
2026-04-28 10:12 3.39414 103.57123 33824 ft 492 kts 267°
2026-04-28 10:13 3.39125 103.50272 33827 ft 493 kts 268°
2026-04-28 10:13 3.38843 103.43424 33822 ft 493 kts 267°
2026-04-28 10:14 3.38580 103.36573 33819 ft 493 kts 268°
2026-04-28 10:14 3.38338 103.29724 33816 ft 493 kts 268°
2026-04-28 10:15 3.38099 103.22913 33819 ft 493 kts 268°
2026-04-28 10:15 3.37854 103.16062 33815 ft 493 kts 268°
2026-04-28 10:16 3.37610 103.09212 33816 ft 493 kts 268°
2026-04-28 10:16 3.37362 103.02330 33813 ft 495 kts 268°
2026-04-28 10:17 3.37108 102.95459 33813 ft 494 kts 268°
2026-04-28 10:17 3.36862 102.88582 33804 ft 495 kts 268°
2026-04-28 10:18 3.36612 102.81704 33805 ft 494 kts 268°
2026-04-28 10:18 3.36360 102.74823 33792 ft 494 kts 268°
2026-04-28 10:19 3.36101 102.67953 33794 ft 494 kts 268°
2026-04-28 10:19 3.35858 102.61089 33791 ft 493 kts 268°
2026-04-28 10:20 3.35740 102.54220 33789 ft 493 kts 269°
2026-04-28 10:20 3.35703 102.47354 33788 ft 493 kts 269°
2026-04-28 10:21 3.35648 102.40533 33788 ft 493 kts 269°
2026-04-28 10:21 3.35563 102.33664 33789 ft 493 kts 269°
2026-04-28 10:22 3.35461 102.26794 33795 ft 494 kts 269°
2026-04-28 10:22 3.35364 102.19922 33794 ft 494 kts 269°
2026-04-28 10:23 3.35271 102.13047 33799 ft 494 kts 269°
2026-04-28 10:23 3.35191 102.07335 33798 ft 494 kts 269°
2026-04-28 10:24 3.35013 102.00463 33802 ft 493 kts 267°
2026-04-28 10:24 3.34621 101.93616 33802 ft 493 kts 266°
2026-04-28 10:25 3.34185 101.86767 33799 ft 493 kts 266°
2026-04-28 10:25 3.33803 101.79923 33793 ft 493 kts 266°
2026-04-28 10:26 3.33457 101.73065 33777 ft 493 kts 267°
2026-04-28 10:26 3.33110 101.66216 33770 ft 493 kts 266°
2026-04-28 10:27 3.32807 101.59366 33763 ft 492 kts 268°
2026-04-28 10:27 3.32639 101.52503 33764 ft 493 kts 268°
2026-04-28 10:28 3.33503 101.45735 33766 ft 492 kts 287°
2026-04-28 10:29 3.38189 101.36678 33774 ft 488 kts 301°
2026-04-28 10:29 3.41648 101.30916 33781 ft 475 kts 301°
2026-04-28 10:30 3.45025 101.25290 33786 ft 475 kts 301°
2026-04-28 10:30 3.48436 101.19610 33680 ft 477 kts 301°
2026-04-28 10:30 3.50144 101.16777 33421 ft 475 kts 301°
2026-04-28 10:31 3.51852 101.13945 33167 ft 475 kts 301°
2026-04-28 10:31 3.53562 101.11109 32921 ft 477 kts 301°
2026-04-28 10:31 3.55273 101.08261 32669 ft 477 kts 301°
2026-04-28 10:31 3.57085 101.05485 32417 ft 476 kts 308°
2026-04-28 10:32 3.59307 101.03029 32181 ft 476 kts 318°
2026-04-28 10:32 3.61905 101.00983 31947 ft 476 kts 328°
2026-04-28 10:32 3.64797 100.99400 31704 ft 473 kts 337°
2026-04-28 10:32 3.67801 100.98062 31463 ft 472 kts 337°
2026-04-28 10:33 3.70792 100.96726 31187 ft 469 kts 336°
2026-04-28 10:33 3.73754 100.95398 30667 ft 464 kts 336°
2026-04-28 10:33 3.76678 100.94081 30144 ft 459 kts 336°
2026-04-28 10:33 3.79578 100.92774 29614 ft 454 kts 337°
2026-04-28 10:34 3.82446 100.91482 29020 ft 450 kts 337°
2026-04-28 10:34 3.85287 100.90202 28449 ft 446 kts 336°
2026-04-28 10:34 3.88103 100.88932 27894 ft 442 kts 336°
2026-04-28 10:34 3.90891 100.87675 27339 ft 438 kts 336°
2026-04-28 10:35 3.93656 100.86429 26811 ft 434 kts 337°
2026-04-28 10:35 3.96401 100.85194 26260 ft 430 kts 337°
2026-04-28 10:35 3.99154 100.83956 25251 ft 439 kts 337°
2026-04-28 10:35 4.01918 100.82715 24504 ft 441 kts 337°
2026-04-28 10:36 4.04714 100.81463 23891 ft 439 kts 337°
2026-04-28 10:36 4.07496 100.80217 23317 ft 436 kts 337°
2026-04-28 10:36 4.10252 100.78977 22670 ft 433 kts 337°
2026-04-28 10:36 4.12987 100.77743 22057 ft 429 kts 337°
2026-04-28 10:37 4.15699 100.76522 21484 ft 425 kts 337°
2026-04-28 10:37 4.18397 100.75311 20627 ft 428 kts 337°
2026-04-28 10:37 4.21142 100.74102 19808 ft 432 kts 338°
2026-04-28 10:37 4.23899 100.72904 19170 ft 430 kts 338°
2026-04-28 10:38 4.26638 100.71721 18592 ft 427 kts 338°
2026-04-28 10:38 4.29359 100.70545 18048 ft 424 kts 338°
2026-04-28 10:38 4.32020 100.69390 17874 ft 409 kts 338°
2026-04-28 10:38 4.34583 100.68274 17747 ft 395 kts 338°
2026-04-28 10:39 4.37062 100.67192 17560 ft 383 kts 338°
2026-04-28 10:39 4.39485 100.66135 17180 ft 378 kts 338°
2026-04-28 10:39 4.41886 100.65089 16762 ft 374 kts 338°
2026-04-28 10:39 4.44270 100.64050 16256 ft 373 kts 338°
2026-04-28 10:40 4.46690 100.62995 15384 ft 384 kts 338°
2026-04-28 10:40 4.49147 100.61923 14804 ft 385 kts 338°
2026-04-28 10:40 4.51599 100.60854 14339 ft 383 kts 338°
2026-04-28 10:40 4.54035 100.59793 13876 ft 380 kts 338°
2026-04-28 10:41 4.56454 100.58740 13425 ft 378 kts 338°
2026-04-28 10:41 4.58865 100.57690 12723 ft 380 kts 338°
2026-04-28 10:41 4.61296 100.56630 12073 ft 381 kts 338°
2026-04-28 10:41 4.63718 100.55571 11527 ft 379 kts 338°
2026-04-28 10:42 4.66122 100.54520 10993 ft 375 kts 338°
2026-04-28 10:42 4.68472 100.53493 10470 ft 372 kts 338°
2026-04-28 10:42 4.70821 100.52468 10189 ft 361 kts 338°
2026-04-28 10:42 4.73077 100.51479 10083 ft 346 kts 338°
2026-04-28 10:43 4.75243 100.50532 9945 ft 333 kts 338°
2026-04-28 10:43 4.77302 100.49632 9823 ft 312 kts 338°
2026-04-28 10:43 4.79245 100.48782 9486 ft 300 kts 338°
2026-04-28 10:43 4.81129 100.47932 8931 ft 295 kts 333°
2026-04-28 10:44 4.82791 100.46740 8360 ft 294 kts 317°
2026-04-28 10:44 4.84109 100.45182 7765 ft 292 kts 308°
2026-04-28 10:44 4.85337 100.43569 7185 ft 290 kts 308°
2026-04-28 10:44 4.86556 100.41966 6628 ft 287 kts 308°
2026-04-28 10:45 4.87761 100.40379 6058 ft 285 kts 308°
2026-04-28 10:45 4.88957 100.38803 5460 ft 282 kts 308°
2026-04-28 10:45 4.90141 100.37246 4956 ft 277 kts 309°
2026-04-28 10:45 4.91269 100.35762 4748 ft 260 kts 309°
2026-04-28 10:46 4.92354 100.34338 4317 ft 255 kts 309°
2026-04-28 10:46 4.93425 100.32934 4140 ft 252 kts 309°
2026-04-28 10:46 4.94477 100.31554 3974 ft 246 kts 308°
2026-04-28 10:46 4.95504 100.30205 3793 ft 241 kts 309°
2026-04-28 10:47 4.96518 100.28874 3694 ft 241 kts 308°
2026-04-28 10:47 4.97596 100.27463 3638 ft 265 kts 309°
2026-04-28 10:47 4.98735 100.25988 3564 ft 269 kts 310°
2026-04-28 10:47 4.99896 100.24508 3492 ft 270 kts 309°
2026-04-28 10:48 5.01077 100.23048 3409 ft 269 kts 315°
2026-04-28 10:48 5.02566 100.21935 3343 ft 267 kts 328°
2026-04-28 10:48 5.04152 100.20960 3271 ft 267 kts 329°
2026-04-28 10:48 5.05737 100.19997 3201 ft 266 kts 329°
2026-04-28 10:49 5.07321 100.19032 3126 ft 267 kts 329°
2026-04-28 10:49 5.08910 100.18080 3052 ft 266 kts 333°
2026-04-28 10:49 5.10608 100.17340 2975 ft 265 kts 340°
2026-04-28 10:49 5.12333 100.16693 2901 ft 263 kts 341°
2026-04-28 10:50 5.14049 100.16182 2824 ft 255 kts 353°
2026-04-28 10:50 5.15805 100.16202 2749 ft 253 kts 11°
2026-04-28 10:50 5.17430 100.16769 2672 ft 242 kts 28°
2026-04-28 10:50 5.18760 100.17745 2452 ft 236 kts 40°
2026-04-28 10:51 5.19969 100.18847 2170 ft 232 kts 41°
2026-04-28 10:51 5.21128 100.19907 1870 ft 220 kts 42°
2026-04-28 10:51 5.22225 100.20902 1598 ft 206 kts 40°
2026-04-28 10:51 5.23233 100.21815 1360 ft 191 kts 41°
2026-04-28 10:52 5.24192 100.22683 1116 ft 179 kts 41°
2026-04-28 10:52 5.25066 100.23475 926 ft 161 kts 41°
2026-04-28 10:52 5.25776 100.24114 758 ft 152 kts 40°
2026-04-28 10:52 5.26551 100.24816 583 ft 150 kts 40°
2026-04-28 10:53 5.27319 100.25513 390 ft 148 kts 41°
2026-04-28 10:53 5.28087 100.26208 193 ft 150 kts 41°
2026-04-28 10:53 5.28858 100.26907 28 ft 144 kts 42°
2026-04-28 10:53 5.29466 100.27458 23 ft 94 kts 41°
2026-04-28 10:54 5.29817 100.27777 27 ft 42 kts 40°
2026-04-28 10:54 5.29991 100.27820 25 ft 24 kts 15°
2026-04-28 10:54 5.30114 100.27839 25 ft 11 kts 309°
2026-04-28 10:54 5.30097 100.27774 24 ft 11 kts 227°
2026-04-28 10:55 5.30042 100.27719 23 ft 11 kts 218°
2026-04-28 10:55 5.29977 100.27666 25 ft 13 kts 219°
2026-04-28 10:55 5.29906 100.27602 23 ft 15 kts 225°
2026-04-28 10:55 5.29827 100.27525 23 ft 17 kts 222°
2026-04-28 10:56 5.29740 100.27445 23 ft 17 kts 223°
2026-04-28 10:56 5.29649 100.27362 23 ft 18 kts 221°
2026-04-28 10:56 5.29554 100.27275 23 ft 19 kts 222°
2026-04-28 10:56 5.29454 100.27186 23 ft 20 kts 222°
2026-04-28 10:57 5.29383 100.27122 23 ft 8 kts 222°
2026-04-28 10:57 5.29348 100.27086 23 ft 6 kts 233°
2026-04-28 10:57 5.29345 100.27040 23 ft 8 kts 293°
2026-04-28 10:57 5.29383 100.26992 23 ft 10 kts 312°
2026-04-28 10:58 5.29402 100.26928 23 ft 11 kts 254°
2026-04-28 10:58 5.29349 100.26871 23 ft 12 kts 222°
2026-04-28 10:58 5.29321 100.26847 23 ft 3 kts 221°
2026-04-28 10:58 5.29312 100.26827 23 ft 4 kts 276°
2026-04-28 10:59 5.29331 100.26803 23 ft 5 kts 311°
2026-04-28 10:59 5.29347 100.26786 23 ft 0 kts 314°
2026-04-28 10:59 5.29351 100.26782 23 ft 3 kts 311°
2026-04-28 10:59 5.29357 100.26775 23 ft 2 kts 309°
2026-04-28 11:00 5.29360 100.26772 23 ft 0 kts 311°